TimeCDT,TemperatureF,Dew PointF,Humidity,Sea Level PressureIn,VisibilityMPH,Wind Direction,Wind SpeedMPH,Gust SpeedMPH,PrecipitationIn,Events,Conditions,WindDirDegrees,DateUTC
12:53 AM,57.0,54.0,89,30.14,10.0,NNE,5.8,-,N/A,,Clear,20,2012-04-18 05:53:00
1:53 AM,57.0,54.0,89,30.13,10.0,North,5.8,-,N/A,,Clear,360,2012-04-18 06:53:00
2:53 AM,55.9,53.1,90,30.11,10.0,North,6.9,-,N/A,,Clear,10,2012-04-18 07:53:00
3:53 AM,55.9,53.1,90,30.11,10.0,North,3.5,-,N/A,,Clear,360,2012-04-18 08:53:00
4:53 AM,55.0,53.1,93,30.11,10.0,North,4.6,-,N/A,,Clear,360,2012-04-18 09:53:00
5:15 AM,55.4,53.6,94,30.11,10.0,North,8.1,-,N/A,,Scattered Clouds,350,2012-04-18 10:15:00
5:23 AM,55.4,53.6,94,30.11,10.0,North,10.4,-,N/A,,Mostly Cloudy,360,2012-04-18 10:23:00
5:53 AM,55.9,54.0,93,30.12,10.0,North,9.2,-,N/A,,Mostly Cloudy,10,2012-04-18 10:53:00
6:11 AM,55.4,53.6,94,30.13,10.0,North,8.1,-,N/A,,Scattered Clouds,10,2012-04-18 11:11:00
6:53 AM,55.9,53.1,90,30.14,10.0,North,10.4,-,N/A,,Scattered Clouds,360,2012-04-18 11:53:00
7:03 AM,55.4,53.6,94,30.14,10.0,North,10.4,-,N/A,,Mostly Cloudy,360,2012-04-18 12:03:00
7:30 AM,57.2,53.6,88,30.14,10.0,NNE,10.4,-,N/A,,Scattered Clouds,20,2012-04-18 12:30:00
7:53 AM,57.0,54.0,89,30.14,10.0,NNE,12.7,-,N/A,,Partly Cloudy,20,2012-04-18 12:53:00
8:53 AM,60.1,55.0,83,30.13,10.0,NNE,11.5,-,0.01,,Clear,20,2012-04-18 13:53:00
9:53 AM,64.9,54.0,68,30.14,10.0,NNE,11.5,-,N/A,,Clear,20,2012-04-18 14:53:00
10:53 AM,66.9,54.0,63,30.13,10.0,NNE,9.2,-,N/A,,Clear,30,2012-04-18 15:53:00
11:53 AM,70.0,53.1,55,30.12,10.0,NE,9.2,25.3,N/A,,Clear,40,2012-04-18 16:53:00
12:53 PM,73.0,55.0,53,30.11,10.0,NNW,12.7,16.1,N/A,,Clear,330,2012-04-18 17:53:00
1:53 PM,75.0,55.0,50,30.09,10.0,North,6.9,17.3,N/A,,Clear,350,2012-04-18 18:53:00
2:53 PM,75.9,55.0,48,30.06,10.0,North,9.2,18.4,N/A,,Clear,10,2012-04-18 19:53:00
3:53 PM,77.0,54.0,45,30.04,10.0,North,13.8,-,N/A,,Clear,360,2012-04-18 20:53:00
4:53 PM,75.9,53.1,45,30.02,10.0,North,12.7,20.7,N/A,,Clear,10,2012-04-18 21:53:00
5:53 PM,75.9,54.0,46,30.01,10.0,North,12.7,-,N/A,,Clear,10,2012-04-18 22:53:00
6:53 PM,73.4,53.6,50,30.02,10.0,North,9.2,-,N/A,,Clear,10,2012-04-18 23:53:00
7:53 PM,69.1,55.9,63,30.03,10.0,NNE,3.5,-,N/A,,Clear,30,2012-04-19 00:53:00
8:53 PM,64.9,59.0,81,30.03,10.0,Calm,Calm,-,N/A,,Clear,0,2012-04-19 01:53:00
9:53 PM,64.9,55.9,73,30.04,10.0,NNE,3.5,-,N/A,,Clear,20,2012-04-19 02:53:00
10:53 PM,63.0,57.9,84,30.04,10.0,Calm,Calm,-,N/A,,Clear,0,2012-04-19 03:53:00
11:53 PM,59.0,55.9,90,30.04,10.0,Calm,Calm,-,N/A,,Clear,0,2012-04-19 04:53:00